Flag for Norway Weather past 2 weeks in Namsos, Norway

Now
63 °F

Partly sunny.


Feels Like: 63 °F
Forecast: 58 / 74 °F
Wind: 6 mph from Northwest

Location: Namsos Lufthavn

Current Time: Jul 25, 2014 at 6:22:18 PM

Latest Report: Jul 25, 2014 at 5:50 PM


Visibility: N/A

Pressure: 30.21 "Hg

Humidity: 77%

Dew point: 55 °F

Location of NamsosLocation

Historic Weather in Namsos — Graph

°F

Namsos temperature yesterday

Maximum temperature yesterday: 77 °F (at 2:50 PM)
Minimum temperature yesterday: 61 °F (at 6:20 AM)
Average temperature yesterday: 70 °F

Past Weeks' High & Low Weather Summary

 TemperatureHumidityPressure
High90 °F (Jul 11, 4:50 PM)100% (Jul 18, 7:50 AM)30.33 "Hg (Jul 18, 7:50 AM)
Low55 °F (Jul 18, 5:50 AM)28% (Jul 13, 6:50 PM)29.65 "Hg (Jul 14, 5:20 PM)
Average70 °F67%30.07 "Hg
* Reported Jul 10 4:20 PM — Jul 25 4:50 PM, Namsos, Weather by CustomWeather, © 2014

Note: Actual official high and low records may vary slightly from our data, if they occured in-between our weather recording intervals... More about our weather records

Advertising

Namsos weather history for previous 24 hours

 ConditionsComfort  
Time TempWeatherWind HumidityBarometerVisibility
4:50 PM
Jul 25
63 °FPartly sunny.5 mph83%30.21 "HgN/A
4:20 PM63 °FPartly sunny.7 mph77%30.21 "HgN/A
3:50 PM64 °FPartly sunny.7 mph78%30.21 "HgN/A
3:20 PM64 °FPartly sunny.6 mph78%30.21 "HgN/A
2:50 PM63 °FPartly sunny.8 mph83%30.21 "HgN/A
2:20 PM63 °FPartly sunny.8 mph83%30.21 "HgN/A
12:50 PM64 °FPartly sunny.7 mph78%30.21 "HgN/A
12:20 PM63 °FPartly sunny.7 mph83%30.21 "HgN/A
11:50 AM63 °FPartly sunny.6 mph83%30.21 "HgN/A
11:20 AM63 °FPartly sunny.5 mph83%30.21 "HgN/A
10:50 AM63 °FPartly sunny.5 mph83%30.21 "HgN/A
10:20 AM63 °FPartly sunny.5 mph88%30.21 "HgN/A
9:50 AM63 °FPartly sunny.5 mph83%30.21 "HgN/A
9:20 AM63 °FPartly sunny.3 mph83%30.21 "HgN/A
8:50 AM61 °FPartly sunny.3 mph88%30.21 "HgN/A
8:20 AM61 °FBroken clouds.5 mph94%30.18 "HgN/A
7:50 AM61 °FPartly sunny.5 mph94%30.21 "Hg5 mi
7:20 AM61 °FPartly sunny.3 mph94%30.18 "Hg4 mi
6:50 AM61 °FPartly sunny.3 mph94%30.18 "Hg4 mi
6:20 AM61 °FPartly sunny.3 mph94%30.18 "Hg4 mi
5:50 AM59 °FPartly sunny.5 mph100%30.18 "Hg4 mi
9:50 PM
Jul 24
68 °FSunny.5 mph73%30.18 "Hg10 mi
9:20 PM70 °FSunny.2 mph69%30.18 "Hg10 mi
8:50 PM72 °FSunny.5 mph65%30.18 "Hg10 mi
8:20 PM73 °FSunny.2 mph61%30.18 "Hg10 mi
7:50 PM73 °FSunny.5 mph61%30.18 "Hg10 mi
7:20 PM75 °FSunny.3 mph57%30.18 "Hg10 mi
6:50 PM75 °FSunny.7 mph57%30.18 "Hg10 mi
6:20 PM75 °FSunny.5 mph57%30.21 "Hg10 mi
Weather by CustomWeather, © 2014

See weather overviewHow to use our weather pages